Weather History for Glencoe, MN

Change the Weather History Date:

Monday, September 9, 2013

  Actual Average (KHCD) Record (KHCD)
Temperature  
Mean Temperature 81 °F -  
Max Temperature 94 °F 75 °F 93 °F (1983)
Min Temperature 68 °F 52 °F 35 °F (2008)
Cooling Degree Days 16    
Growing Degree Days 31 (Base 50)    
Moisture  
Dew Point 66 °F    
Average Humidity 68    
Maximum Humidity 88    
Minimum Humidity 35    
Precipitation  
Precipitation 0.01 in - - ()
Sea Level Pressure  
Sea Level Pressure 29.74 in    
Wind  
Wind Speed 8 mph (South)    
Max Wind Speed 14 mph    
Max Gust Speed 21 mph    
Visibility 8 miles    
Events Rain , Thunderstorm    
Averages and records for this station are not official NWS values.
T = Trace of Precipitation, MM = Missing Value Source: NWS Daily Summary

Daily Weather History Graph

Daily Weather History Graph

Search for Another Location

Airport:

Trip Planner

Search our weather history database for the weather conditions in past years. The results will help you decide how hot, cold, wet, or windy it might be!

Date:

Astronomy

Sep. 09, 2013 Rise Set
Actual Time 6:48 AM CDT 7:37 PM CDT
Civil Twilight 6:18 AM CDT 8:07 PM CDT
Nautical Twilight 5:43 AM CDT 8:42 PM CDT
Astronomical Twilight 5:06 AM CDT 9:19 PM CDT
Moon 11:23 AM CDT (9/9) 9:41 PM CDT (9/9)
Length of Visible Light 13h 48m
Length of Day
12h 49m
Waxing Crescent, 19% of the Moon is Illuminated
Sep 9
Waxing Crescent
Sep 12
First Quarter
Sep 19
Full
Sep 26
Last Quarter
Oct 4
New

Hourly Weather History & Observations

Time (CDT) Temp. Heat Index Dew Point Humidity Pressure Visibility Wind Dir Wind Speed Gust Speed Precip Events Conditions
12:13 AM 70.9 °F - 63.7 °F 78% 29.88 in 10.0 mi SE 8.1 mph - N/A   Overcast
12:34 AM 70.7 °F - 63.9 °F 79% 29.88 in 10.0 mi ESE 9.2 mph - N/A   Overcast
12:53 AM 70.3 °F - 63.9 °F 80% 29.87 in 10.0 mi ESE 9.2 mph - N/A   Overcast
1:14 AM 70.0 °F - 64.0 °F 81% 29.87 in 7.0 mi ESE 6.9 mph - N/A   Overcast
1:34 AM 69.8 °F - 64.4 °F 83% 29.88 in 7.0 mi SE 3.5 mph - N/A   Overcast
1:54 AM 69.6 °F - 64.4 °F 83% 29.86 in 5.0 mi ESE 4.6 mph - N/A   Haze
2:14 AM 69.8 °F - 64.4 °F 83% 29.85 in 7.0 mi ESE 4.6 mph - N/A   Overcast
2:34 AM 69.8 °F - 64.4 °F 83% 29.84 in 7.0 mi East 5.8 mph - N/A   Overcast
2:54 AM 69.8 °F - 64.0 °F 82% 29.83 in 7.0 mi ESE 9.2 mph - N/A   Overcast
3:13 AM 69.8 °F - 64.0 °F 82% 29.83 in 7.0 mi East 9.2 mph - N/A   Overcast
3:34 AM 69.3 °F - 63.9 °F 83% 29.81 in 7.0 mi ESE 9.2 mph - N/A   Overcast
3:54 AM 69.3 °F - 63.7 °F 82% 29.81 in 10.0 mi ESE 6.9 mph - N/A   Overcast
4:13 AM 69.3 °F - 63.5 °F 82% 29.80 in 10.0 mi ESE 8.1 mph - N/A   Overcast
4:34 AM 68.9 °F - 63.5 °F 83% 29.80 in 10.0 mi ESE 6.9 mph - N/A   Mostly Cloudy
4:54 AM 68.2 °F - 63.1 °F 84% 29.80 in 10.0 mi ESE 5.8 mph - N/A   Scattered Clouds
5:13 AM 68.2 °F - 63.5 °F 85% 29.80 in 7.0 mi ESE 5.8 mph - N/A   Clear
5:34 AM 68.4 °F - 63.5 °F 84% 29.82 in 7.0 mi Calm Calm - N/A Thunderstorm Clear
5:53 AM 68.2 °F - 63.7 °F 85% 29.82 in 5.0 mi Calm Calm - N/A Rain , Thunderstorm Light Thunderstorms and Rain
6:14 AM 68.0 °F - 64.0 °F 87% 29.77 in 5.0 mi East 9.2 mph - N/A Rain Light Rain
6:33 AM 68.0 °F - 64.0 °F 87% 29.76 in 5.0 mi East 8.1 mph - 0.01 in Rain , Thunderstorm Light Thunderstorms and Rain
6:54 AM 68.0 °F - 64.0 °F 87% 29.77 in 5.0 mi East 6.9 mph - 0.01 in Rain Light Rain
7:13 AM 68.0 °F - 64.0 °F 87% 29.78 in 5.0 mi SE 4.6 mph - N/A   Overcast
7:34 AM 68.4 °F - 64.8 °F 88% 29.76 in 3.0 mi SE 6.9 mph - N/A   Overcast
7:53 AM 69.1 °F - 65.5 °F 88% 29.75 in 2.5 mi SE 6.9 mph - N/A   Overcast
8:14 AM 69.8 °F - 66.2 °F 88% 29.75 in 2.5 mi SSE 8.1 mph - N/A   Overcast
8:34 AM 70.3 °F - 66.6 °F 88% 29.75 in 2.5 mi SSE 5.8 mph - N/A   Overcast
8:54 AM 71.1 °F - 67.3 °F 88% 29.74 in 2.5 mi SSE 10.4 mph - N/A   Overcast
9:14 AM 71.6 °F - 67.5 °F 87% 29.74 in 2.5 mi SSE 6.9 mph 16.1 mph N/A   Overcast
9:34 AM 72.1 °F - 67.6 °F 86% 29.73 in 3.0 mi SSE 6.9 mph - N/A   Overcast
9:54 AM 72.5 °F - 67.8 °F 85% 29.73 in 4.0 mi South 6.9 mph - N/A   Haze
10:13 AM 73.4 °F - 68.0 °F 83% 29.72 in 4.0 mi SSE 8.1 mph - N/A   Haze
10:34 AM 74.3 °F - 68.0 °F 81% 29.72 in 5.0 mi South 8.1 mph - N/A   Haze
10:53 AM 75.0 °F - 68.0 °F 79% 29.73 in 5.0 mi SSE 4.6 mph - N/A   Haze
11:14 AM 76.1 °F - 68.2 °F 76% 29.72 in 5.0 mi SSE 6.9 mph - N/A   Haze
11:34 AM 77.4 °F - 68.7 °F 75% 29.72 in 7.0 mi Calm Calm - N/A   Mostly Cloudy
11:54 AM 78.6 °F - 69.1 °F 72% 29.72 in 7.0 mi SSW 6.9 mph - N/A   Mostly Cloudy
12:14 PM 81.5 °F 84.8 °F 69.1 °F 66% 29.70 in 10.0 mi South 6.9 mph - N/A   Scattered Clouds
12:34 PM 82.4 °F 85.8 °F 69.1 °F 64% 29.69 in 10.0 mi South 8.1 mph - N/A   Scattered Clouds
12:54 PM 83.3 °F 86.9 °F 69.1 °F 62% 29.68 in 10.0 mi SE 9.2 mph - N/A   Clear
1:14 PM 84.9 °F 88.5 °F 68.7 °F 58% 29.67 in 10.0 mi South 9.2 mph - N/A   Clear
1:34 PM 86.0 °F 89.7 °F 68.7 °F 56% 29.66 in 10.0 mi SSE 10.4 mph - N/A   Clear
1:54 PM 87.1 °F 90.9 °F 68.4 °F 54% 29.65 in 10.0 mi SSE 9.2 mph - N/A   Clear
2:14 PM 88.7 °F 92.2 °F 68.0 °F 50% 29.65 in 10.0 mi South 12.7 mph 17.3 mph N/A   Clear
2:33 PM 89.2 °F 92.8 °F 67.6 °F 49% 29.65 in 10.0 mi South 9.2 mph 17.3 mph N/A   Clear
2:54 PM 90.7 °F 94.1 °F 67.1 °F 46% 29.65 in 10.0 mi South 6.9 mph - N/A   Clear
3:14 PM 91.8 °F 94.6 °F 66.6 °F 43% 29.65 in 10.0 mi SSW 10.4 mph 16.1 mph N/A   Clear
3:34 PM 92.3 °F 95.1 °F 66.4 °F 42% 29.64 in 10.0 mi South 11.5 mph - N/A   Clear
3:54 PM 93.6 °F 95.5 °F 64.6 °F 38% 29.64 in 10.0 mi SSW 10.4 mph 19.6 mph N/A   Clear
4:14 PM 94.1 °F 95.0 °F 62.2 °F 35% 29.63 in 10.0 mi SSW 10.4 mph 19.6 mph N/A   Clear
4:33 PM 93.7 °F 94.5 °F 62.4 °F 35% 29.64 in 10.0 mi SSW 12.7 mph 20.7 mph N/A   Clear
4:54 PM 93.4 °F 94.3 °F 62.8 °F 36% 29.64 in 10.0 mi SW 10.4 mph 17.3 mph N/A   Clear
5:13 PM 92.7 °F 93.2 °F 62.2 °F 36% 29.65 in 10.0 mi SW 12.7 mph 18.4 mph N/A   Clear
5:34 PM 92.1 °F 93.2 °F 62.8 °F 38% 29.65 in 10.0 mi SW 11.5 mph 18.4 mph N/A   Clear
5:54 PM 91.4 °F 92.1 °F 62.8 °F 38% 29.66 in 10.0 mi SW 13.8 mph 18.4 mph N/A   Clear
6:13 PM 90.5 °F 91.4 °F 62.8 °F 40% 29.66 in 10.0 mi SW 9.2 mph 18.4 mph N/A   Clear
6:34 PM 89.6 °F 90.8 °F 63.7 °F 42% 29.66 in 10.0 mi SSW 8.1 mph - N/A   Clear
6:54 PM 88.3 °F 89.9 °F 64.4 °F 45% 29.67 in 10.0 mi SW 4.6 mph - N/A   Clear
7:14 PM 87.1 °F 88.9 °F 65.3 °F 48% 29.67 in 10.0 mi SSW 3.5 mph - N/A   Mostly Cloudy
7:34 PM 86.7 °F 88.7 °F 65.3 °F 49% 29.68 in 10.0 mi SSW 5.8 mph - N/A   Mostly Cloudy
7:54 PM 85.1 °F 87.1 °F 65.8 °F 52% 29.69 in 10.0 mi SW 10.4 mph - N/A   Scattered Clouds
8:14 PM 84.2 °F 87.3 °F 68.2 °F 58% 29.70 in 10.0 mi West 9.2 mph - N/A   Scattered Clouds
8:33 PM 83.7 °F 86.2 °F 66.7 °F 57% 29.72 in 10.0 mi West 10.4 mph - N/A   Mostly Cloudy
8:53 PM 82.2 °F 84.6 °F 66.6 °F 59% 29.74 in 10.0 mi West 10.4 mph - N/A   Scattered Clouds
9:14 PM 81.0 °F 83.4 °F 67.5 °F 63% 29.75 in 10.0 mi West 9.2 mph 17.3 mph N/A   Clear
9:33 PM 79.9 °F - 67.6 °F 66% 29.75 in 10.0 mi West 5.8 mph - N/A   Clear
9:54 PM 78.8 °F - 68.2 °F 70% 29.76 in 10.0 mi West 5.8 mph - N/A   Clear
10:13 PM 77.9 °F - 68.2 °F 72% 29.77 in 10.0 mi West 4.6 mph - N/A   Clear
10:34 PM 77.0 °F - 68.0 °F 74% 29.77 in 10.0 mi West 4.6 mph - N/A   Clear
10:54 PM 76.6 °F - 67.1 °F 72% 29.78 in 10.0 mi West 10.4 mph - N/A   Clear
11:14 PM 76.1 °F - 66.2 °F 71% 29.79 in 10.0 mi West 8.1 mph - N/A   Scattered Clouds
11:33 PM 75.2 °F - 64.9 °F 70% 29.79 in 10.0 mi West 8.1 mph - N/A   Scattered Clouds
11:54 PM 74.3 °F - 63.0 °F 68% 29.79 in 10.0 mi West 8.1 mph - N/A   Clear